| time (UTC) | temp F | wind direction | speed knots | gust knots | rain 1hr in | rain 24hr in | rain mn in | humidity % | barometer mb |
| 20260503203533 | 53 | 319 | 6.1 | 10.4 | 0.00 | 0.00 | 0.00 | 40 | 1008.9 |
| 20260503203047 | 53 | 322 | 5.2 | 9.6 | 0.00 | 0.00 | 0.00 | 45 | 1008.8 |
| 20260503202529 | 53 | 317 | 4.3 | 13.0 | 0.00 | 0.00 | 0.00 | 43 | 1008.9 |
| 20260503202029 | 52 | 282 | 4.3 | 13.0 | 0.00 | 0.00 | 0.00 | 41 | 1008.8 |
| 20260503201546 | 53 | 309 | 5.2 | 13.0 | 0.00 | 0.00 | 0.00 | 42 | 1009.0 |
| 20260503201028 | 52 | 258 | 5.2 | 13.0 | 0.00 | 0.00 | 0.00 | 43 | 1009.0 |
| 20260503200528 | 52 | 1 | 4.3 | 10.4 | 0.00 | 0.00 | 0.00 | 42 | 1008.8 |
| 20260503200044 | 52 | 323 | 4.3 | 8.7 | 0.00 | 0.00 | 0.00 | 43 | 1009.0 |
| 20260503195528 | 52 | 28 | 3.5 | 14.8 | 0.00 | 0.00 | 0.00 | 43 | 1008.9 |
| 20260503195028 | 52 | 10 | 4.3 | 19.1 | 0.00 | 0.00 | 0.00 | 43 | 1008.9 |
| 20260503194545 | 52 | 319 | 6.1 | 19.1 | 0.00 | 0.00 | 0.00 | 42 | 1009.0 |
| 20260503194028 | 52 | 356 | 3.5 | 14.8 | 0.00 | 0.00 | 0.00 | 43 | 1009.1 |
| 20260503193528 | 52 | 278 | 6.1 | 10.4 | 0.00 | 0.00 | 0.00 | 42 | 1008.9 |
| 20260503193046 | 52 | 312 | 3.5 | 9.6 | 0.00 | 0.00 | 0.00 | 42 | 1009.0 |
| 20260503192529 | 52 | 6 | 3.5 | 9.6 | 0.00 | 0.00 | 0.00 | 42 | 1009.0 |
| 20260503192034 | 52 | 297 | 3.5 | 8.7 | 0.00 | 0.00 | 0.00 | 43 | 1009.0 |
| 20260503191604 | 52 | 304 | 5.2 | 9.6 | 0.00 | 0.00 | 0.00 | 42 | 1009.0 |
| 20260503191033 | 52 | 312 | 3.5 | 10.4 | 0.00 | 0.00 | 0.00 | 43 | 1009.1 |
| 20260503190534 | 52 | 295 | 3.5 | 13.0 | 0.00 | 0.00 | 0.00 | 47 | 1009.0 |
| 20260503190036 | 52 | 3 | 5.2 | 13.0 | 0.00 | 0.00 | 0.00 | 43 | 1009.0 |
| 20260503185530 | 52 | 235 | 1.7 | 10.4 | 0.00 | 0.00 | 0.00 | 46 | 1009.0 |
| 20260503185030 | 52 | 311 | 3.5 | 12.2 | 0.00 | 0.00 | 0.00 | 45 | 1008.9 |
| 20260503184545 | 51 | 342 | 3.5 | 12.2 | 0.00 | 0.00 | 0.00 | 46 | 1008.9 |
| 20260503184033 | 52 | 25 | 4.3 | 10.4 | 0.00 | 0.00 | 0.00 | 44 | 1008.9 |
| 20260503183534 | 52 | 344 | 5.2 | 10.4 | 0.00 | 0.00 | 0.00 | 42 | 1008.8 |
| 20260503183044 | 52 | 332 | 2.6 | 11.3 | 0.00 | 0.00 | 0.00 | 46 | 1008.8 |
| 20260503182534 | 51 | 312 | 3.5 | 11.3 | 0.00 | 0.00 | 0.00 | 44 | 1008.7 |
| 20260503182030 | 51 | 329 | 3.5 | 12.2 | 0.00 | 0.00 | 0.00 | 46 | 1008.8 |
| 20260503181548 | 51 | 250 | 4.3 | 12.2 | 0.00 | 0.00 | 0.00 | 45 | 1008.9 |
| 20260503181030 | 52 | 24 | 3.5 | 12.2 | 0.00 | 0.00 | 0.00 | 50 | 1008.9 |
| 20260503180530 | 51 | 337 | 3.5 | 12.2 | 0.00 | 0.00 | 0.00 | 48 | 1008.8 |
| 20260503180054 | 51 | 342 | 5.2 | 13.0 | 0.00 | 0.00 | 0.00 | 46 | 1009.1 |
| 20260503175535 | 51 | 312 | 6.1 | 13.0 | 0.00 | 0.00 | 0.00 | 46 | 1009.1 |
| 20260503175032 | 51 | 294 | 4.3 | 10.4 | 0.00 | 0.00 | 0.00 | 47 | 1009.0 |
| 20260503174546 | 52 | 319 | 5.2 | 12.2 | 0.00 | 0.00 | 0.00 | 46 | 1008.9 |
| 20260503174032 | 52 | 8 | 3.5 | 13.9 | 0.00 | 0.00 | 0.00 | 46 | 1008.7 |
| 20260503173532 | 53 | 332 | 5.2 | 20.0 | 0.00 | 0.00 | 0.00 | 47 | 1008.9 |
| 20260503173037 | 52 | 291 | 8.7 | 20.0 | 0.00 | 0.00 | 0.00 | 47 | 1008.8 |
| 20260503172530 | 52 | 318 | 7.8 | 17.4 | 0.00 | 0.00 | 0.00 | 45 | 1008.7 |
| 20260503172030 | 53 | 330 | 7.0 | 17.4 | 0.00 | 0.00 | 0.00 | 47 | 1008.7 |
| 20260503171549 | 53 | 324 | 7.0 | 13.9 | 0.00 | 0.00 | 0.00 | 43 | 1008.7 |
| 20260503171034 | 52 | 347 | 6.1 | 13.0 | 0.00 | 0.00 | 0.00 | 43 | 1008.7 |
| 20260503170531 | 52 | 287 | 7.0 | 13.9 | 0.00 | 0.00 | 0.00 | 44 | 1008.6 |
| 20260503150530 | 49 | 276 | 2.6 | 17.4 | 0.00 | 0.00 | 0.00 | 52 | 1008.9 |
| 20260503131029 | 46 | 317 | 6.1 | 13.0 | 0.00 | 0.00 | 0.00 | 63 | 1009.4 |
| 20260503130525 | 46 | 281 | 4.3 | 10.4 | 0.00 | 0.00 | 0.00 | 65 | 1009.3 |
| 20260503110528 | 42 | 307 | 3.5 | 13.0 | 0.00 | 0.03 | 0.00 | 69 | 1009.3 |
| 20260503081542 | 40 | 326 | 0.9 | 7.0 | 0.00 | 0.19 | 0.00 | 68 | 1010.0 |
| 20260503081031 | 40 | 342 | 0.9 | 5.2 | 0.00 | 0.19 | 0.00 | 68 | 1009.8 |
| 20260503080531 | 40 | 327 | 0.9 | 5.2 | 0.00 | 0.19 | 0.00 | 67 | 1009.9 |
| 20260503072529 | 41 | 342 | 0.0 | 4.3 | 0.00 | 0.20 | 0.00 | 68 | 1010.1 |
| 20260503072029 | 41 | 15 | 0.9 | 5.2 | 0.00 | 0.20 | 0.00 | 65 | 1010.0 |
| 20260503071539 | 41 | 296 | 1.7 | 5.2 | 0.00 | 0.20 | 0.00 | 65 | 1010.0 |
| 20260503071029 | 41 | 314 | 1.7 | 3.5 | 0.00 | 0.20 | 0.00 | 65 | 1009.9 |
| 20260503070530 | 41 | 321 | 0.9 | 3.5 | 0.00 | 0.20 | 0.00 | 66 | 1009.8 |
| 20260503055030 | 41 | 337 | 0.0 | 1.7 | 0.00 | 0.21 | 0.00 | 66 | 1011.3 |
| 20260503054558 | 40 | 316 | 0.0 | 1.7 | 0.00 | 0.21 | 0.00 | 67 | 1011.3 |
| 20260503054029 | 40 | 0 | 0.0 | 1.7 | 0.00 | 0.21 | 0.00 | 69 | 1011.4 |
| 20260503053530 | 40 | 334 | 0.0 | 1.7 | 0.00 | 0.21 | 0.00 | 67 | 1011.3 |
| 20260503053039 | 40 | 222 | 0.0 | 0.9 | 0.00 | 0.21 | 0.00 | 70 | 1011.4 |
| 20260503052530 | 40 | 0 | 0.0 | 0.9 | 0.00 | 0.21 | 0.00 | 69 | 1011.5 |
| 20260503052030 | 40 | 0 | 0.0 | 0.9 | 0.00 | 0.21 | 0.00 | 69 | 1011.5 |
| 20260503051538 | 41 | 222 | 0.0 | 0.9 | 0.00 | 0.21 | 0.00 | 68 | 1011.6 |
| 20260503051025 | 41 | 0 | 0.0 | 0.0 | 0.00 | 0.21 | 0.00 | 69 | 1011.6 |
| 20260503050527 | 41 | 0 | 0.0 | 0.0 | 0.00 | 0.21 | 0.00 | 67 | 1011.5 |
| 20260503050038 | 42 | 0 | 0.0 | 0.0 | 0.00 | 0.21 | 0.00 | 68 | 1011.6 |
| 20260503045529 | 42 | 0 | 0.0 | 0.0 | 0.00 | 0.21 | 0.00 | 65 | 1011.6 |
| 20260503045030 | 43 | 0 | 0.0 | 1.7 | 0.00 | 0.21 | 0.00 | 63 | 1011.5 |
| 20260503044541 | 43 | 0 | 0.0 | 1.7 | 0.00 | 0.21 | 0.00 | 60 | 1011.6 |
| 20260503044029 | 43 | 304 | 0.9 | 3.5 | 0.00 | 0.21 | 0.00 | 59 | 1011.6 |
| 20260503043529 | 43 | 0 | 0.9 | 3.5 | 0.00 | 0.21 | 0.00 | 60 | 1011.6 |
| 20260503043048 | 42 | 304 | 0.0 | 1.7 | 0.00 | 0.21 | 0.00 | 62 | 1011.6 |
| 20260503042529 | 42 | 260 | 0.0 | 0.9 | 0.00 | 0.21 | 0.00 | 64 | 1011.7 |
| 20260503042029 | 42 | 0 | 0.0 | 0.9 | 0.00 | 0.21 | 0.00 | 64 | 1011.9 |
| 20260503041537 | 42 | 0 | 0.0 | 0.9 | 0.00 | 0.21 | 0.00 | 65 | 1011.7 |
| 20260503041029 | 42 | 0 | 0.0 | 0.9 | 0.00 | 0.21 | 0.00 | 66 | 1011.6 |
| 20260503040532 | 43 | 0 | 0.0 | 0.9 | 0.00 | 0.21 | 0.00 | 66 | 1011.7 |
| 20260503040039 | 43 | 0 | 0.0 | 1.7 | 0.00 | 0.21 | 0.00 | 63 | 1011.8 |
| 20260503035525 | 43 | 0 | 0.0 | 4.3 | 0.00 | 0.21 | 0.21 | 62 | 1011.8 |
| 20260503035025 | 44 | 0 | 0.9 | 4.3 | 0.00 | 0.21 | 0.21 | 59 | 1011.8 |
| 20260503034541 | 43 | 0 | 0.0 | 3.5 | 0.00 | 0.21 | 0.21 | 60 | 1011.8 |
| 20260503034029 | 43 | 321 | 0.9 | 3.5 | 0.00 | 0.21 | 0.21 | 61 | 1011.8 |
| 20260503033525 | 43 | 0 | 0.0 | 0.9 | 0.00 | 0.21 | 0.21 | 64 | 1012.0 |
| 20260503033044 | 43 | 0 | 0.0 | 0.9 | 0.00 | 0.21 | 0.21 | 63 | 1011.9 |
| 20260503032524 | 43 | 0 | 0.0 | 0.9 | 0.00 | 0.21 | 0.21 | 63 | 1012.1 |
| 20260503032028 | 43 | 0 | 0.0 | 1.7 | 0.00 | 0.21 | 0.21 | 66 | 1012.0 |
| 20260503031544 | 43 | 0 | 0.0 | 1.7 | 0.00 | 0.21 | 0.21 | 66 | 1012.1 |
| 20260503031029 | 43 | 277 | 0.0 | 0.9 | 0.00 | 0.21 | 0.21 | 64 | 1012.1 |
| 20260503030529 | 43 | 0 | 0.0 | 1.7 | 0.00 | 0.21 | 0.21 | 64 | 1012.1 |
| 20260503030040 | 43 | 324 | 0.0 | 1.7 | 0.00 | 0.21 | 0.21 | 63 | 1012.2 |
| 20260503025528 | 44 | 0 | 0.0 | 1.7 | 0.00 | 0.21 | 0.21 | 67 | 1012.3 |
| 20260503025029 | 44 | 0 | 0.0 | 0.9 | 0.00 | 0.21 | 0.21 | 63 | 1012.1 |
| 20260503024540 | 44 | 0 | 0.0 | 0.9 | 0.00 | 0.21 | 0.21 | 63 | 1012.3 |
| 20260503024029 | 44 | 0 | 0.0 | 0.0 | 0.00 | 0.21 | 0.21 | 64 | 1012.3 |
| 20260503023527 | 44 | 0 | 0.0 | 0.0 | 0.00 | 0.21 | 0.21 | 63 | 1012.3 |
| 20260503023037 | 45 | 0 | 0.0 | 0.0 | 0.00 | 0.21 | 0.21 | 59 | 1012.3 |
| 20260503022527 | 45 | 316 | 0.0 | 0.9 | 0.00 | 0.21 | 0.21 | 59 | 1012.3 |
| 20260503022027 | 45 | 0 | 0.0 | 0.9 | 0.00 | 0.21 | 0.21 | 58 | 1012.2 |
| 20260503021535 | 46 | 0 | 0.0 | 1.7 | 0.00 | 0.21 | 0.21 | 58 | 1012.3 |
| 20260503021029 | 46 | 326 | 0.0 | 1.7 | 0.00 | 0.21 | 0.21 | 56 | 1012.3 |
| 20260503020531 | 46 | 342 | 0.0 | 2.6 | 0.00 | 0.21 | 0.21 | 56 | 1012.2 |
| 20260503020045 | 46 | 0 | 0.0 | 2.6 | 0.00 | 0.21 | 0.21 | 56 | 1012.3 |
| 20260503015532 | 46 | 322 | 0.0 | 2.6 | 0.00 | 0.21 | 0.21 | 54 | 1012.4 |
| 20260503015029 | 47 | 305 | 0.0 | 0.9 | 0.00 | 0.21 | 0.21 | 55 | 1012.3 |
| 20260503014544 | 47 | 0 | 0.0 | 0.0 | 0.00 | 0.21 | 0.21 | 54 | 1012.3 |
| 20260503014029 | 47 | 0 | 0.0 | 1.7 | 0.00 | 0.21 | 0.21 | 53 | 1012.3 |
| 20260503013530 | 47 | 0 | 0.0 | 1.7 | 0.00 | 0.21 | 0.21 | 53 | 1012.3 |
| 20260503013044 | 47 | 0 | 0.0 | 1.7 | 0.00 | 0.21 | 0.21 | 53 | 1012.3 |
| 20260503012530 | 47 | 318 | 0.9 | 3.5 | 0.00 | 0.21 | 0.21 | 53 | 1012.3 |
| 20260503012029 | 47 | 312 | 0.9 | 3.5 | 0.00 | 0.21 | 0.21 | 52 | 1012.3 |
| 20260503011542 | 47 | 300 | 0.0 | 2.6 | 0.00 | 0.21 | 0.21 | 54 | 1012.4 |
| 20260503011029 | 48 | 329 | 0.0 | 2.6 | 0.00 | 0.21 | 0.21 | 53 | 1012.2 |
| 20260503010533 | 48 | 291 | 0.0 | 1.7 | 0.00 | 0.21 | 0.21 | 53 | 1012.2 |
| 20260503010038 | 48 | 309 | 0.0 | 1.7 | 0.00 | 0.21 | 0.21 | 55 | 1012.1 |
| 20260503005530 | 49 | 0 | 0.0 | 1.7 | 0.00 | 0.21 | 0.21 | 53 | 1012.1 |
| 20260503005031 | 49 | 0 | 0.0 | 1.7 | 0.00 | 0.21 | 0.21 | 51 | 1012.3 |
| 20260503004540 | 50 | 326 | 0.0 | 1.7 | 0.00 | 0.21 | 0.21 | 49 | 1011.9 |
| 20260503004029 | 50 | 0 | 0.0 | 1.7 | 0.00 | 0.21 | 0.21 | 49 | 1011.9 |
| 20260503003529 | 50 | 288 | 0.9 | 3.5 | 0.00 | 0.21 | 0.21 | 49 | 1011.9 |
| 20260503003046 | 50 | 321 | 0.9 | 3.5 | 0.00 | 0.21 | 0.21 | 48 | 1011.7 |
| 20260503002529 | 50 | 0 | 0.0 | 3.5 | 0.00 | 0.21 | 0.21 | 48 | 1011.6 |
| 20260503002029 | 51 | 334 | 0.9 | 4.3 | 0.00 | 0.21 | 0.21 | 49 | 1011.6 |
| 20260503001548 | 51 | 294 | 1.7 | 5.2 | 0.00 | 0.21 | 0.21 | 46 | 1011.5 |
| 20260503001030 | 51 | 26 | 1.7 | 5.2 | 0.00 | 0.21 | 0.21 | 47 | 1011.3 |
| 20260503000529 | 51 | 336 | 1.7 | 9.6 | 0.00 | 0.21 | 0.21 | 46 | 1011.3 |
| 20260503000043 | 52 | 26 | 2.6 | 9.6 | 0.00 | 0.21 | 0.21 | 46 | 1011.3 |
| 20260502235529 | 52 | 302 | 0.9 | 6.1 | 0.00 | 0.21 | 0.21 | 46 | 1011.3 |
| 20260502235030 | 52 | 335 | 1.7 | 7.0 | 0.00 | 0.21 | 0.21 | 45 | 1011.2 |
| 20260502234549 | 52 | 323 | 2.6 | 7.0 | 0.00 | 0.21 | 0.21 | 46 | 1011.2 |
| 20260502234030 | 53 | 337 | 0.9 | 7.0 | 0.00 | 0.21 | 0.21 | 47 | 1011.0 |
| 20260502233529 | 53 | 279 | 3.5 | 7.0 | 0.00 | 0.21 | 0.21 | 45 | 1011.1 |
| 20260502233040 | 53 | 320 | 2.6 | 6.1 | 0.00 | 0.21 | 0.21 | 45 | 1010.9 |
| 20260502232529 | 54 | 274 | 1.7 | 9.6 | 0.00 | 0.21 | 0.21 | 46 | 1010.9 |
| 20260502232030 | 54 | 292 | 1.7 | 9.6 | 0.00 | 0.21 | 0.21 | 44 | 1010.9 |
| 20260502231535 | 54 | 330 | 2.6 | 7.8 | 0.00 | 0.21 | 0.21 | 45 | 1010.7 |
| 20260502231030 | 54 | 326 | 0.9 | 9.6 | 0.00 | 0.21 | 0.21 | 45 | 1010.7 |
| 20260502230530 | 54 | 291 | 1.7 | 9.6 | 0.00 | 0.21 | 0.21 | 44 | 1010.9 |
| 20260502230046 | 54 | 354 | 4.3 | 7.8 | 0.00 | 0.21 | 0.21 | 44 | 1010.7 |
| 20260502225538 | 54 | 326 | 1.7 | 7.8 | 0.00 | 0.21 | 0.21 | 45 | 1010.6 |
| 20260502225029 | 55 | 279 | 4.3 | 8.7 | 0.00 | 0.21 | 0.21 | 44 | 1010.7 |
| 20260502224547 | 55 | 26 | 4.3 | 8.7 | 0.00 | 0.21 | 0.21 | 45 | 1010.7 |
| 20260502224029 | 55 | 203 | 2.6 | 6.1 | 0.00 | 0.21 | 0.21 | 43 | 1010.4 |
| 20260502223530 | 56 | 325 | 1.7 | 10.4 | 0.00 | 0.21 | 0.21 | 44 | 1010.4 |
| 20260502223045 | 56 | 350 | 3.5 | 10.4 | 0.00 | 0.21 | 0.21 | 43 | 1010.5 |
| 20260502222529 | 56 | 295 | 0.9 | 7.0 | 0.00 | 0.21 | 0.21 | 44 | 1010.2 |
| 20260502222031 | 56 | 26 | 0.9 | 7.0 | 0.00 | 0.21 | 0.21 | 46 | 1010.1 |
| 20260502221537 | 56 | 314 | 2.6 | 7.0 | 0.00 | 0.21 | 0.21 | 46 | 1010.0 |
| 20260502221033 | 57 | 240 | 0.9 | 2.6 | 0.00 | 0.21 | 0.21 | 44 | 1010.1 |
| 20260502220530 | 56 | 23 | 0.0 | 3.5 | 0.00 | 0.21 | 0.21 | 47 | 1010.0 |
| 20260502220039 | 56 | 266 | 0.0 | 3.5 | 0.00 | 0.21 | 0.21 | 45 | 1010.1 |
| 20260502215530 | 57 | 23 | 0.9 | 5.2 | 0.00 | 0.21 | 0.21 | 45 | 1010.1 |
| 20260502215029 | 57 | 120 | 0.9 | 5.2 | 0.00 | 0.21 | 0.21 | 46 | 1010.0 |
| 20260502214549 | 58 | 276 | 1.7 | 5.2 | 0.00 | 0.21 | 0.21 | 45 | 1010.1 |
| 20260502214033 | 59 | 329 | 0.0 | 2.6 | 0.00 | 0.21 | 0.21 | 48 | 1010.1 |
| 20260502213529 | 58 | 239 | 0.9 | 6.1 | 0.00 | 0.21 | 0.21 | 49 | 1010.0 |
| 20260502213044 | 57 | 328 | 2.6 | 6.1 | 0.00 | 0.21 | 0.21 | 45 | 1009.9 |
| 20260502212530 | 58 | 0 | 0.9 | 3.5 | 0.00 | 0.21 | 0.21 | 47 | 1010.0 |
| 20260502212029 | 57 | 323 | 0.9 | 4.3 | 0.00 | 0.21 | 0.21 | 53 | 1010.0 |
| 20260502211543 | 56 | 351 | 1.7 | 7.0 | 0.00 | 0.21 | 0.21 | 51 | 1010.1 |
| 20260502211030 | 56 | 281 | 1.7 | 7.0 | 0.00 | 0.21 | 0.21 | 53 | 1010.1 |
| 20260502210531 | 56 | 321 | 0.9 | 6.1 | 0.00 | 0.21 | 0.21 | 50 | 1010.0 |
| 20260502210048 | 56 | 308 | 1.7 | 4.3 | 0.00 | 0.21 | 0.21 | 51 | 1010.0 |
| 20260502205532 | 56 | 91 | 0.9 | 3.5 | 0.00 | 0.21 | 0.21 | 53 | 1010.0 |
| 20260502205030 | 56 | 273 | 0.9 | 3.5 | 0.00 | 0.21 | 0.21 | 51 | 1010.1 |
| 20260502204537 | 56 | 86 | 0.9 | 4.3 | 0.00 | 0.21 | 0.21 | 54 | 1010.2 |
| 20260502204030 | 56 | 218 | 0.9 | 4.3 | 0.00 | 0.21 | 0.21 | 52 | 1010.1 |